Weather History for EGPF - September, 2013

Change the Weather History Date:

Sunday, September 1, 2013

  Actual Average Record
Temperature  
Mean Temperature 56 °F -  
Max Temperature 59 °F 60 °F 66 °F (1999)
Min Temperature 53 °F 46 °F 41 °F (2002)
Degree Days  
Heating Degree Days 9    
Growing Degree Days 6 (Base 50)    
Moisture  
Dew Point 51 °F    
Average Humidity 81    
Maximum Humidity 94    
Minimum Humidity 72    
Precipitation  
Precipitation 0.00 in - - ()
Sea Level Pressure  
Sea Level Pressure 30.22 in    
Wind  
Wind Speed 13 mph ()    
Max Wind Speed 23 mph    
Max Gust Speed 33 mph    
Visibility 6.0 miles    
Events Rain    
Averages and records for this station are not official NWS values.
T = Trace of Precipitation, MM = Missing Value Source: Averaged Metar Reports

Daily Weather History Graph

Daily Weather History Graph

Search for Another Location

Airport or City:

Trip Planner

Search our weather history database for the weather conditions in past years. The results will help you decide how hot, cold, wet, or windy it might be!

Date:

Astronomy

Sep. 01, 2013 Rise Set
Actual Time 6:22 AM BST 8:11 PM BST
Civil Twilight 5:43 AM BST 8:50 PM BST
Nautical Twilight 4:53 AM BST 9:39 PM BST
Astronomical Twilight 3:56 AM BST 10:36 PM BST
Moon 2:03 AM BST (9/1) 6:02 PM BST (9/1)
Length of Visible Light 15h 07m
Length of Day
13h 49m
Waning Crescent, 15% of the Moon is Illuminated
Sep 1
Waning Crescent
Sep 5
New
Sep 12
First Quarter
Sep 19
Full
Sep 27
Last Quarter

Hourly Weather History & Observations

Time (BST) Temp. Dew Point Humidity Pressure Visibility Wind Dir Wind Speed Gust Speed Precip Events Conditions
12:20 AM 53.6 °F 48.2 °F 82% 30.30 in 6.2 mi West 10.4 mph - N/A   Mostly Cloudy
12:50 AM 55.4 °F 48.2 °F 77% 30.30 in 6.2 mi West 10.4 mph - N/A   Mostly Cloudy
1:20 AM 53.6 °F 48.2 °F 82% 30.27 in 6.2 mi WSW 10.4 mph - N/A   Partly Cloudy
1:50 AM 53.6 °F 48.2 °F 82% 30.27 in 6.2 mi West 12.7 mph - N/A   Scattered Clouds
2:20 AM 53.6 °F 50.0 °F 88% 30.27 in 6.2 mi WSW 15.0 mph - N/A   Mostly Cloudy
2:50 AM 53.6 °F 48.2 °F 82% 30.27 in 6.2 mi West 11.5 mph - N/A   Mostly Cloudy
3:20 AM 55.4 °F 48.2 °F 77% 30.27 in 6.2 mi West 13.8 mph - N/A   Mostly Cloudy
3:50 AM 53.6 °F 50.0 °F 88% 30.27 in 6.2 mi WSW 13.8 mph - N/A   Mostly Cloudy
4:20 AM 53.6 °F 48.2 °F 82% 30.27 in 6.2 mi WSW 12.7 mph - N/A Rain Light Rain
4:50 AM 53.6 °F 50.0 °F 88% 30.27 in 6.2 mi WSW 10.4 mph - N/A   Mostly Cloudy
5:20 AM 53.6 °F 50.0 °F 88% 30.27 in 6.2 mi WSW 13.8 mph - N/A   Mostly Cloudy
5:50 AM 53.6 °F 48.2 °F 82% 30.24 in 6.2 mi WSW 11.5 mph - N/A   Mostly Cloudy
6:20 AM 53.6 °F 50.0 °F 88% 30.24 in 6.2 mi West 15.0 mph 26.5 mph N/A Rain Light Rain
6:50 AM 55.4 °F 50.0 °F 82% 30.24 in 6.2 mi WSW 9.2 mph - N/A   Mostly Cloudy
7:20 AM 55.4 °F 50.0 °F 82% 30.24 in 6.2 mi WSW 13.8 mph - N/A   Mostly Cloudy
7:50 AM 55.4 °F 50.0 °F 82% 30.24 in 5.6 mi WSW 16.1 mph - N/A   Mostly Cloudy
8:20 AM 55.4 °F 50.0 °F 82% 30.24 in 5.0 mi West 11.5 mph - N/A Rain Light Rain
8:50 AM 55.4 °F 50.0 °F 82% 30.24 in 6.2 mi West 13.8 mph - N/A   Mostly Cloudy
9:20 AM 57.2 °F 50.0 °F 77% 30.24 in 6.2 mi West 17.3 mph - N/A   Mostly Cloudy
9:50 AM 57.2 °F 50.0 °F 77% 30.24 in 6.2 mi West 16.1 mph - N/A   Mostly Cloudy
10:20 AM 57.2 °F 50.0 °F 77% 30.21 in 6.2 mi WSW 16.1 mph - N/A   Mostly Cloudy
10:50 AM 57.2 °F 50.0 °F 77% 30.21 in 6.2 mi West 16.1 mph - N/A   Mostly Cloudy
11:20 AM 59.0 °F 50.0 °F 72% 30.21 in 6.2 mi West 17.3 mph - N/A   Mostly Cloudy
11:50 AM 57.2 °F 50.0 °F 77% 30.21 in 5.6 mi WSW 19.6 mph - N/A   Mostly Cloudy
12:20 PM 59.0 °F 50.0 °F 72% 30.21 in 6.2 mi West 18.4 mph - N/A   Mostly Cloudy
12:50 PM 59.0 °F 50.0 °F 72% 30.24 in 6.2 mi West 18.4 mph - N/A   Mostly Cloudy
1:20 PM 59.0 °F 50.0 °F 72% 30.24 in 5.0 mi West 18.4 mph - N/A   Mostly Cloudy
1:50 PM 59.0 °F 50.0 °F 72% 30.21 in 6.2 mi West 19.6 mph - N/A   Mostly Cloudy
2:20 PM 59.0 °F 51.8 °F 77% 30.21 in 6.2 mi West 19.6 mph - N/A   Mostly Cloudy
2:50 PM 59.0 °F 50.0 °F 72% 30.21 in 6.2 mi West 20.7 mph - N/A   Overcast
3:20 PM 59.0 °F 50.0 °F 72% 30.18 in 6.2 mi West 21.9 mph 33.4 mph N/A   Mostly Cloudy
3:50 PM 59.0 °F 50.0 °F 72% 30.21 in 6.2 mi West 23.0 mph - N/A   Mostly Cloudy
4:20 PM 59.0 °F 50.0 °F 72% 30.21 in 6.2 mi West 17.3 mph - N/A   Overcast
4:50 PM 59.0 °F 51.8 °F 77% 30.21 in 6.2 mi West 19.6 mph - N/A   Overcast
5:20 PM 59.0 °F 51.8 °F 77% 30.21 in 6.2 mi West 17.3 mph - N/A   Overcast
5:50 PM 59.0 °F 51.8 °F 77% 30.18 in 6.2 mi West 16.1 mph - N/A   Overcast
6:20 PM 59.0 °F 51.8 °F 77% 30.18 in 6.2 mi West 17.3 mph - N/A   Overcast
6:50 PM 59.0 °F 51.8 °F 77% 30.18 in 6.2 mi West 18.4 mph - N/A   Overcast
7:20 PM 57.2 °F 53.6 °F 88% 30.18 in 5.0 mi WSW 18.4 mph - N/A   Overcast
7:50 PM 57.2 °F 53.6 °F 88% 30.18 in 5.0 mi WSW 16.1 mph - N/A   Overcast
8:20 PM 57.2 °F 53.6 °F 88% 30.18 in 6.2 mi WSW 18.4 mph - N/A   Overcast
8:50 PM 57.2 °F 53.6 °F 88% 30.18 in 6.2 mi WSW 17.3 mph - N/A   Overcast
9:20 PM 57.2 °F 53.6 °F 88% 30.18 in 6.2 mi West 17.3 mph - N/A   Overcast
9:50 PM 57.2 °F 55.4 °F 94% 30.18 in 6.2 mi WSW 16.1 mph - N/A   Overcast
10:20 PM 59.0 °F 55.4 °F 88% 30.18 in 6.2 mi WSW 12.7 mph - N/A   Mostly Cloudy
10:50 PM 59.0 °F 55.4 °F 88% 30.18 in 6.2 mi WSW 16.1 mph - N/A   Mostly Cloudy
11:20 PM 57.2 °F 55.4 °F 94% 30.15 in 4.3 mi WSW 16.1 mph - N/A   Mostly Cloudy
11:50 PM 59.0 °F 55.4 °F 88% 30.15 in 6.2 mi WSW 15.0 mph - N/A   Mostly Cloudy